Tracking 19854 objects as of 23-Sep-2019
HD Live streaming from Space Station
objects crossing your sky now

H-2A R/B

Track H-2A R/B now!
10-day predictions


NORAD ID: 43496
Int'l Code: 2018-052B
Perigee: 480.6 km
Apogee: 508.8 km
Inclination: 97.3 °
Period: 94.4 minutes
Semi major axis: 6865 km
RCS: Unknown
Launch date: June 12, 2018
Source: Japan (JPN)
Launch site: TANEGASHIMA SPACE CENTER (TNSTA)

Note: This is a ROCKET BODY
aabbcc
Your satellite tracking list
Your tracking list is empty




NASA's NSSDC Master Catalog

Two Line Element Set (TLE):
1 43496U 18052B   19240.95707877 0.00000650  00000-0  25127-4 0    03
2 43496  97.2501 346.4647 0020498 268.9561  91.0437 15.26069821    00
Source of the keplerian elements: McCants